Location: Béaulencourt
(50.0796°N, 2.8795°E)
Time: 16:31:21
(UTC+00:00)

Envisat - Pass Details

Date: 13 March 2026
Orbit: 761 x 762 km, 98.4° (Epoch: 15 April)

Event Time Altitude Azimuth Distance (km) Brightness Sun altitude
Rises 03:58:43 0° 5° (N) 3,238 6.6 -21.0°
Reaches altitude 10° 04:01:24 10° 352° (N) 2,308 5.6 -20.6°
Enters shadow 04:05:13 24° 303° (WNW) 1,565 4.3 -20.0°
